KC9DNQ-3 Weather Reports


Display with metric or nautical units.
time (UTC)temp
F
wind
direction
speed
MPH
gust
MPH
rain 1hr
in
rain 24hr
in
rain mn
in
humidity
%
barometer
mb
20260504050507 55 208 1.0 6.0 0.00 0.01 0.00 69 1005.3
20260504050006 56 192 2.0 5.0 0.00 0.01 0.00 69 1005.3
20260504045507 56 192 1.0 5.0 0.00 0.01 0.01 69 1005.3
20260504045007 56 192 2.0 7.0 0.00 0.01 0.01 69 1005.4
20260504044507 56 190 2.0 7.0 0.00 0.01 0.01 69 1005.3
20260504044007 56 189 2.0 6.0 0.00 0.01 0.01 69 1005.4
20260504043507 56 186 2.0 6.0 0.00 0.01 0.01 69 1005.4
20260504043008 56 185 3.0 6.0 0.00 0.01 0.01 68 1005.4
20260504042507 56 188 3.0 6.0 0.00 0.01 0.01 69 1005.4
20260504042008 56 188 2.0 5.0 0.00 0.01 0.01 69 1005.5
20260504041507 56 188 2.0 6.0 0.00 0.01 0.01 69 1005.5
20260504041007 57 194 2.0 6.0 0.00 0.01 0.01 68 1005.5
20260504040507 57 193 2.0 6.0 0.00 0.01 0.01 68 1005.5
20260504040008 57 173 1.0 6.0 0.00 0.01 0.01 68 1005.6
20260504035507 57 185 2.0 6.0 0.00 0.01 0.01 68 1005.6
20260504035007 57 182 2.0 5.0 0.00 0.01 0.01 68 1005.6
20260504034506 57 181 2.0 3.0 0.00 0.01 0.01 68 1005.8
20260504034008 57 152 1.0 5.0 0.00 0.01 0.01 68 1005.8
20260504033507 57 151 2.0 7.0 0.00 0.01 0.01 67 1005.8
20260504033007 57 209 2.0 7.0 0.00 0.01 0.01 67 1005.9
20260504032507 57 174 2.0 7.0 0.00 0.01 0.01 67 1005.9
20260504032006 57 194 0.0 5.0 0.00 0.01 0.01 66 1005.9
20260504031507 58 194 1.0 5.0 0.00 0.01 0.01 66 1005.9
20260504031006 58 182 2.0 5.0 0.00 0.01 0.01 65 1005.9
20260504030507 58 178 1.0 3.0 0.00 0.01 0.01 64 1005.9
20260504030007 59 178 1.0 7.0 0.00 0.01 0.01 63 1005.9
20260504025507 59 178 2.0 7.0 0.00 0.01 0.01 63 1005.8
20260504025006 59 189 2.0 6.0 0.00 0.01 0.01 63 1005.8
20260504024506 59 170 2.0 6.0 0.00 0.01 0.01 63 1005.9
20260504024007 59 157 1.0 6.0 0.00 0.01 0.01 62 1005.9
20260504023507 59 160 2.0 6.0 0.00 0.01 0.01 62 1005.8
20260504023007 59 175 2.0 3.0 0.00 0.01 0.01 62 1005.8
20260504022507 59 175 1.0 5.0 0.00 0.01 0.01 62 1005.8
20260504022006 59 172 2.0 5.0 0.00 0.01 0.01 61 1005.7
20260504021507 60 183 1.0 3.0 0.00 0.01 0.01 61 1005.7
20260504021006 60 183 0.0 3.0 0.00 0.01 0.01 60 1005.7
20260504020508 60 183 1.0 3.0 0.00 0.01 0.01 60 1005.7
20260504020007 60 181 2.0 3.0 0.00 0.01 0.01 59 1005.6
20260504015507 60 182 1.0 3.0 0.00 0.01 0.01 60 1005.6
20260504015007 60 182 1.0 3.0 0.00 0.01 0.01 59 1005.6
20260504014507 60 182 1.0 3.0 0.00 0.01 0.01 59 1005.6
20260504014007 61 182 1.0 3.0 0.00 0.01 0.01 58 1005.6
20260504013508 61 180 1.0 3.0 0.00 0.01 0.01 57 1005.6
20260504013007 62 259 0.0 3.0 0.00 0.01 0.01 58 1005.6
20260504012507 62 260 1.0 3.0 0.00 0.01 0.01 56 1005.6
20260504012006 62 262 1.0 3.0 0.00 0.01 0.01 55 1005.6
20260504011507 63 262 1.0 3.0 0.00 0.01 0.01 54 1005.5
20260504011007 63 266 1.0 5.0 0.00 0.01 0.01 53 1005.5
20260504010507 64 266 1.0 8.0 0.00 0.01 0.01 53 1005.5
20260504010007 64 165 3.0 12.0 0.00 0.01 0.01 52 1005.4
20260504005507 64 207 2.0 12.0 0.00 0.01 0.01 51 1005.3
20260504005006 65 215 2.0 12.0 0.00 0.01 0.01 51 1005.3
20260504004507 65 214 3.0 9.0 0.00 0.01 0.01 51 1005.3
20260504004007 65 197 4.0 9.0 0.00 0.01 0.01 50 1005.3
20260504003506 66 219 3.0 9.0 0.00 0.01 0.01 49 1005.4
20260504003007 66 210 3.0 9.0 0.00 0.01 0.01 49 1005.4
20260504002507 66 208 2.0 12.0 0.00 0.01 0.01 48 1005.3
20260504002007 67 222 3.0 12.0 0.00 0.01 0.01 48 1005.4
20260504001506 67 212 4.0 10.0 0.00 0.01 0.01 46 1005.5
20260504001008 67 224 4.0 10.0 0.00 0.01 0.01 46 1005.5
20260504000507 68 219 5.0 14.0 0.00 0.01 0.01 45 1005.5
20260504000007 68 238 5.0 15.0 0.00 0.01 0.01 46 1005.5
20260503235507 68 247 8.0 15.0 0.00 0.01 0.01 45 1005.7
20260503235007 68 230 5.0 12.0 0.00 0.01 0.01 45 1005.6
20260503234507 68 258 6.0 18.0 0.00 0.01 0.01 45 1005.5
20260503234008 69 206 7.0 18.0 0.00 0.01 0.01 44 1005.5
20260503233507 69 222 6.0 14.0 0.00 0.01 0.01 44 1005.5
20260503233007 69 210 4.0 15.0 0.00 0.01 0.01 44 1005.5
20260503232507 69 225 8.0 15.0 0.00 0.01 0.01 43 1005.5
20260503232006 69 223 5.0 14.0 0.00 0.01 0.01 43 1005.6
20260503231507 69 221 6.0 16.0 0.00 0.01 0.01 43 1005.7
20260503231007 69 194 6.0 16.0 0.00 0.01 0.01 44 1005.6
20260503230507 69 188 6.0 14.0 0.00 0.01 0.01 42 1006.0
20260503230007 69 231 7.0 14.0 0.00 0.01 0.01 43 1006.0
20260503225507 69 229 5.0 13.0 0.00 0.01 0.01 43 1006.0
20260503225007 69 243 5.0 18.0 0.00 0.01 0.01 42 1006.0
20260503224507 70 251 3.0 18.0 0.00 0.01 0.01 42 1006.0
20260503224007 70 247 7.0 18.0 0.00 0.01 0.01 43 1006.0
20260503223506 70 227 7.0 16.0 0.00 0.01 0.01 41 1005.9
20260503223006 70 248 6.0 18.0 0.00 0.01 0.01 42 1006.0
20260503222507 69 201 8.0 18.0 0.00 0.01 0.01 43 1006.0
20260503222007 69 236 7.0 20.0 0.00 0.01 0.01 42 1006.0
20260503221507 68 245 6.0 20.0 0.00 0.01 0.01 42 1006.0
20260503221006 68 222 5.0 15.0 0.00 0.01 0.01 42 1006.0
20260503220507 69 238 3.0 18.0 0.00 0.01 0.01 43 1006.0
20260503220008 68 244 6.0 18.0 0.00 0.01 0.01 42 1006.0
20260503215507 67 223 8.0 14.0 0.00 0.01 0.01 43 1005.9
20260503215008 67 202 6.0 18.0 0.00 0.01 0.01 42 1006.2
20260503214506 67 188 4.0 18.0 0.00 0.01 0.01 42 1006.1
20260503214007 67 245 7.0 20.0 0.00 0.01 0.01 43 1006.2
20260503213507 67 197 6.0 20.0 0.00 0.01 0.01 42 1006.2
20260503213007 67 232 7.0 20.0 0.00 0.01 0.01 41 1006.2
20260503212508 67 200 6.0 16.0 0.00 0.01 0.01 42 1006.4
20260503212007 67 185 4.0 16.0 0.00 0.01 0.01 42 1006.4
20260503211507 67 203 2.0 16.0 0.00 0.01 0.01 45 1006.5
20260503211007 67 173 6.0 20.0 0.00 0.01 0.01 43 1006.7
20260503210506 67 206 8.0 20.0 0.00 0.01 0.01 42 1006.7
20260503210006 67 220 5.0 17.0 0.00 0.01 0.01 43 1006.8
20260503205508 67 182 5.0 17.0 0.00 0.01 0.01 43 1006.8
20260503205007 66 194 8.0 20.0 0.00 0.01 0.01 44 1007.2
20260503204507 66 195 8.0 20.0 0.00 0.01 0.01 43 1007.2
20260503204007 66 194 8.0 16.0 0.00 0.01 0.01 42 1007.2
20260503203508 66 208 7.0 17.0 0.00 0.01 0.01 43 1007.5
20260503203006 66 205 9.0 17.0 0.00 0.01 0.01 42 1007.5
20260503202507 66 185 7.0 18.0 0.00 0.01 0.01 43 1007.5
20260503202007 67 185 9.0 20.0 0.00 0.01 0.01 40 1007.6
20260503201506 68 185 6.0 20.0 0.00 0.01 0.01 40 1007.7
20260503201007 68 200 6.0 22.0 0.00 0.01 0.01 42 1007.8
20260503200506 67 200 10.0 22.0 0.00 0.01 0.01 39 1007.8
20260503200007 67 185 6.0 21.0 0.00 0.01 0.01 41 1007.9
20260503195506 67 194 6.0 21.0 0.00 0.01 0.01 41 1007.9
20260503195006 67 197 10.0 21.0 0.00 0.01 0.01 41 1008.2
20260503194506 66 180 4.0 21.0 0.00 0.01 0.01 43 1008.2
20260503194007 65 180 8.0 21.0 0.00 0.01 0.01 41 1008.2
20260503193507 66 184 7.0 21.0 0.00 0.01 0.01 40 1008.2
20260503193008 65 186 6.0 21.0 0.00 0.01 0.01 40 1008.2
20260503192506 65 193 9.0 21.0 0.00 0.01 0.01 41 1008.2
20260503192007 66 183 8.0 17.0 0.00 0.01 0.01 38 1008.3
20260503191507 66 167 7.0 22.0 0.00 0.01 0.01 40 1008.2
20260503191007 66 215 8.0 22.0 0.00 0.01 0.01 43 1008.4
20260503190507 65 184 8.0 20.0 0.00 0.01 0.01 43 1008.4
20260503190008 65 185 12.0 26.0 0.00 0.01 0.01 41 1008.6
20260503185507 65 177 8.0 26.0 0.00 0.01 0.01 43 1008.9
20260503185006 65 160 10.0 23.0 0.00 0.01 0.01 43 1008.9
20260503184506 64 191 7.0 21.0 0.00 0.01 0.01 48 1008.9
20260503184008 64 192 9.0 17.0 0.00 0.01 0.01 47 1009.0
20260503183507 63 179 5.0 14.0 0.00 0.01 0.01 50 1009.3
20260503183007 63 161 6.0 21.0 0.00 0.01 0.01 50 1009.3
20260503182507 62 172 7.0 21.0 0.00 0.01 0.01 50 1009.5
20260503182006 62 211 5.0 17.0 0.00 0.01 0.01 53 1009.5
20260503181507 61 162 6.0 17.0 0.00 0.01 0.01 55 1009.7
20260503181006 60 174 5.0 15.0 0.00 0.01 0.01 54 1010.2
20260503180508 60 186 5.0 12.0 0.00 0.01 0.01 59 1010.2
20260503180006 59 188 3.0 8.0 0.00 0.01 0.01 61 1010.2
20260503175506 58 157 3.0 8.0 0.00 0.01 0.01 60 1010.7
20260503175006 57 160 3.0 8.0 0.00 0.01 0.01 60 1010.7
20260503174506 57 178 3.0 8.0 0.00 0.01 0.01 60 1011.0
20260503174007 56 176 3.0 7.0 0.00 0.01 0.01 61 1011.2
20260503173507 56 173 1.0 5.0 0.00 0.01 0.01 63 1011.4
20260503173008 56 177 1.0 5.0 0.00 0.01 0.01 65 1011.4
20260503172507 56 174 1.0 3.0 0.00 0.01 0.01 68 1011.5
20260503172008 55 174 1.0 3.0 0.00 0.01 0.01 69 1011.9
20260503171507 54 177 2.0 3.0 0.00 0.01 0.01 70 1011.9
20260503171008 53 173 1.0 3.0 0.00 0.01 0.01 69 1012.2
20260503170506 53 173 1.0 3.0 0.01 0.01 0.01 71 1012.3
20260503151007 52 183 2.0 5.0 0.00 0.00 0.00 68 1014.0
20260503150506 52 224 2.0 9.0 0.00 0.00 0.00 70 1013.8
20260503131006 52 179 5.0 16.0 0.00 0.00 0.00 61 1014.2
20260503130507 51 197 6.0 14.0 0.00 0.00 0.00 62 1014.2
20260503110506 47 184 5.0 13.0 0.00 0.00 0.00 62 1014.0
20260503090507 44 187 2.0 6.0 0.00 0.00 0.00 66 1014.5
20260503081507 44 206 3.0 7.0 0.00 0.00 0.00 64 1014.6
20260503081007 44 187 3.0 7.0 0.00 0.00 0.00 64 1014.6
20260503080506 44 184 3.0 7.0 0.00 0.00 0.00 64 1014.5
20260503072506 44 184 2.0 5.0 0.00 0.00 0.00 67 1014.6
20260503072007 44 184 2.0 5.0 0.00 0.00 0.00 66 1014.7
20260503071506 44 184 2.0 3.0 0.00 0.00 0.00 66 1014.8
20260503071006 44 185 2.0 5.0 0.00 0.00 0.00 66 1014.7
20260503070506 44 185 2.0 5.0 0.00 0.00 0.00 66 1014.8
20260503055012 45 182 2.0 5.0 0.00 0.00 0.00 62 1015.5
20260503054511 45 182 2.0 6.0 0.00 0.00 0.00 60 1015.5
20260503054011 45 184 2.0 7.0 0.00 0.00 0.00 61 1015.6
20260503053511 45 183 2.0 7.0 0.00 0.00 0.00 60 1015.6
20260503053012 45 192 2.0 7.0 0.00 0.00 0.00 61 1015.6
20260503052511 45 188 2.0 7.0 0.00 0.00 0.00 60 1015.6
20260503052011 45 197 1.0 9.0 0.00 0.00 0.00 61 1015.6